Flag for Hungary Weather past 2 weeks in Szeged, Hungary

Now
35 °F

Rain. Low clouds.


Feels Like: 32 °F
Forecast: 34 / 41 °F
Wind: 3 mph from Northwest

Location: Szeged

Current Time: Jan 25, 2015 at 12:04:16 PM

Latest Report: Jan 25, 2015 at 11:00 AM


Visibility: 2 mi

Pressure: 30.00 "Hg

Humidity: 93%

Dew point: 33 °F

Location of SzegedLocation

Historic Weather in Szeged — Graph

°F

Szeged temperature yesterday

Maximum temperature yesterday: 43 °F (at 12:00 AM)
Minimum temperature yesterday: 38 °F (at 11:00 PM)
Average temperature yesterday: 40 °F

Past Weeks' High & Low Weather Summary

 TemperatureHumidityPressure
High51 °F (Jan 15, 3:00 PM)97% (Jan 19, 4:00 AM)30.36 "Hg (Jan 19, 4:00 AM)
Low28 °F (Jan 14, 3:00 AM)39% (Jan 15, 3:00 PM)29.78 "Hg (Jan 24, 2:00 PM)
Average40 °F86%30.02 "Hg
* Reported Jan 10 10:00 AM — Jan 25 10:00 AM, Szeged, Weather by CustomWeather, © 2014

Note: Actual official high and low records may vary slightly from our data, if they occured in-between our weather recording intervals... More about our weather records

Advertising

Szeged weather history for previous 24 hours

 ConditionsComfort  
Time TempWeatherWind HumidityBarometerVisibility
10:00 AM
Jan 25
35 °FFog.3 mph93%29.98 "Hg3 mi
9:00 AM35 °FLow clouds.3 mph92%29.96 "Hg4 mi
8:00 AM35 °FLight rain. Low clouds.3 mph92%29.94 "Hg2 mi
7:00 AM35 °FFog.3 mph93%29.92 "Hg3 mi
6:00 AM36 °FLow clouds.3 mph93%29.90 "Hg4 mi
5:00 AM36 °FLow clouds.3 mph93%29.89 "Hg4 mi
4:00 AM36 °FLow clouds.2 mph93%29.88 "Hg4 mi
3:00 AM37 °FLight rain. Low clouds.2 mph94%29.87 "Hg4 mi
2:00 AM37 °FLight rain. Low clouds.2 mph94%29.86 "Hg3 mi
1:00 AM37 °FLight rain. Low clouds.3 mph95%29.86 "Hg3 mi
12:00 AM37 °FRain. Low clouds.3 mph95%29.85 "Hg2 mi
11:00 PM
Jan 24
38 °FRain. Low clouds.3 mph95%29.85 "Hg1 mi
10:00 PM39 °FDrizzle. Low clouds.3 mph94%29.83 "Hg1 mi
9:00 PM40 °FOvercast.2 mph93%29.83 "Hg4 mi
8:00 PM40 °FOvercast.2 mph93%29.81 "Hg4 mi
7:00 PM40 °FOvercast.2 mph92%29.81 "Hg4 mi
6:00 PM40 °FOvercast.3 mph92%29.80 "Hg4 mi
5:00 PM40 °FLight rain. Overcast.2 mph92%29.79 "Hg4 mi
4:00 PM40 °FLight rain. Overcast.3 mph92%29.78 "Hg4 mi
3:00 PM40 °FLight rain. Overcast.3 mph92%29.78 "Hg4 mi
2:00 PM40 °FLight rain. Overcast.2 mph92%29.78 "Hg5 mi
1:00 PM40 °FLight rain. Overcast.3 mph91%29.78 "Hg5 mi
12:00 PM39 °FLight rain. Overcast.5 mph91%29.80 "Hg5 mi
Weather by CustomWeather, © 2014

See weather overviewHow to use our weather pages